This is the latest recevied weather packets stored in our database for station/object KG7FOQ-13. If no packets are shown the sender has not sent any weather packets the latest 10 day(s).
| Time | Temp. | Humidity | Pressure | Rain* | Wind** | Luminosity | Snow |
|---|---|---|---|---|---|---|---|
| 1778054993 | 8.33° C | 47% | 1015.2 hPa | 0 mm | - | - | - |
| 1778054691 | 8.33° C | 47% | 1015.2 hPa | 0 mm | - | - | - |
| 1778054390 | 8.33° C | 48% | 1015.2 hPa | 0 mm | - | - | - |
| 1778054090 | 8.89° C | 48% | 1015.1 hPa | 0 mm | - | - | - |
| 1778053789 | 8.89° C | 48% | 1015 hPa | 0 mm | - | - | - |
| 1778053489 | 8.89° C | 48% | 1014.9 hPa | 0 mm | - | - | - |
| 1778053188 | 8.89° C | 48% | 1015 hPa | 0 mm | - | - | - |
| 1778052888 | 8.89° C | 49% | 1014.9 hPa | 0 mm | - | - | - |
| 1778052587 | 8.89° C | 47% | 1014.8 hPa | 0 mm | - | - | - |
| 1778052287 | 8.89° C | 49% | 1015 hPa | 0 mm | - | - | - |
| 1778051986 | 8.89° C | 50% | 1015 hPa | 0 mm | - | - | - |
| 1778051686 | 8.89° C | 49% | 1014.8 hPa | 0 mm | - | - | - |
| 1778051385 | 8.89° C | 49% | 1014.9 hPa | 0 mm | - | - | - |
| 1778051085 | 8.89° C | 51% | 1014.8 hPa | 0 mm | - | - | - |
| 1778050784 | 8.89° C | 51% | 1014.8 hPa | 0 mm | - | - | - |
| 1778050484 | 8.89° C | 52% | 1014.7 hPa | 0 mm | - | - | - |
| 1778050183 | 8.89° C | 51% | 1014.4 hPa | 0 mm | - | - | - |
| 1778049883 | 8.89° C | 51% | 1014.3 hPa | 0 mm | - | - | - |
| 1778049582 | 8.89° C | 51% | 1014.2 hPa | 0 mm | - | - | - |
| 1778049282 | 8.89° C | 53% | 1014.2 hPa | 0 mm | - | - | - |
| 1778048981 | 8.89° C | 55% | 1014 hPa | 0 mm | - | - | - |
| 1778048681 | 8.89° C | 58% | 1013.8 hPa | 0 mm | - | - | - |
| 1778048380 | 9.44° C | 56% | 1013.7 hPa | 0 mm | - | - | - |
| 1778048080 | 10° C | 48% | 1013.5 hPa | 0 mm | - | - | - |
| 1778047779 | 10° C | 49% | 1013.5 hPa | 0 mm | - | - | - |
* Rain latest hour (hover to see other rain measurements)
** Current wind speed in m/s (hover to see current wind gust speed)